YAOGAN 12

导读

YAOGAN 12(遥感十二号)是中国于2011年11月9日发射的遥感卫星,作为我国对地观测体系的重要组成部分,延续了遥感系列卫星的技术路线。它依托空间遥感平台,通过搭载的遥感器对地球开展探测,获取国土资源、农业、环境等领域观测数据,可为灾害监测、资源调查、城市规划等应用领域提供科学数据支撑,服务国民经济建设发展。

Basic Information
目录编号:
37875
目录名称:
YAOGAN 12
国际标识:
2011-066B
轨道中心:
EARTH
卫星名称:
YAOGAN 12
卫星全名:
--
卫星状态:
在轨 (已飞行5333 天)
发射日期:
2011-11-09 UTC
国别 :
中国 (CN)
星等 :
--
Orbit Information
数据来源 国际轨道数据 AOE轨道数据
星历时间 2026-06-16T16:21:15+0800
4小时前
查看轨道信息
2026-06-13T05:00:00+0800
3天前
查看轨道信息
半长轴 6864.148km 6864.264km
偏心率 0.0008593 0.0008491
轨道倾角 97.114° 97.115°
近地点辐角 219.674° 233.492°
升交点赤经 205.956° 202.647°
平近点角 140.387° 131.985°
近地点 480.112km 480.298km
远地点 491.91km 491.956km
周期 94.328分钟 94.330分钟
每日圈数 15.265917 15.265528
Detailed Information
使用方式:
暂无
2D Orbit Map
3D Orbit Map
Orbit Altitude Analysis Chart
Orbit Inclination Analysis Chart
Orbit Comprehensive Analysis Chart
View Comprehensive Chart